Regional Weather Roundup
Issued by NWS

Home | Current Version | Previous Version | Text Only | Print | Product List | Glossary Off
Versions: 1 2 3 4 5 6 7 8 9 10 11 12 13 14 15 16 17 18 19 20 21 22 23 24 25 26 27 28 29 30 31 32 33 34 35 36 37 38 39 40 41 42 43 44 45 46 47 48 49 50

000
ASUS45 KABQ 251210
RWRNM
NEW MEXICO REGIONAL WEATHER ROUNDUP
NATIONAL WEATHER SERVICE ALBUQUERQUE NM
600 AM MDT SUN JUN 25 2017

NOTE: "FAIR" MEANS FEW OR NO CLOUDS BELOW 12,000 FEET AGL WITH NO
       SIGNIFICANT WEATHER OR OBSTRUCTIONS TO VISION.

      THIS PRODUCT IS RELEASED AS TWO VERSIONS.  ONE VERSION NEAR
      THE TOP OF THE HOUR CONTAINING PRELIMINARY DATA FROM ALBUQUERQUE
      AND OTHER STATIONS.  A FINAL VERSION WITH ADDITIONAL DATA IS
      ISSUED ABOUT 10 MINUTES AFTER THE HOUR.

NMZ501-503-504-510>518-251300-
NORTHWEST PLATEAU/NORTHCENTRAL MOUNTAINS

CITY           SKY/WX    TMP DP  RH WIND       PRES   REMARKS
FARMINGTON     FAIR      59  32  36 E8        30.23R
6HR MIN TEMP:  58; 6HR MAX TEMP:  69;

LOS ALAMOS     CLOUDY    59  54  82 S12G18    30.42S
SANTA FE       FAIR      62  57  83 SE13      30.36S
6HR MIN TEMP:  62; 6HR MAX TEMP:  67;

TAOS           FAIR      52  39  62 N6        30.42R
ANGEL FIRE     FAIR      48  46  93 CALM      30.49R

$$
NMZ402-403-502-505>509-251300-
WESTCENTRAL MOUNTAINS/SOUTHWEST MOUNTAINS

CITY           SKY/WX    TMP DP  RH WIND       PRES   REMARKS
GALLUP         FAIR      59  39  47 NE7       30.29R
6HR MIN TEMP:  58; 6HR MAX TEMP:  73;

GRANTS         FAIR      61  46  59 S13       30.34R
SILVER CITY    FAIR      60  54  81 NE5       30.30R

$$
NMZ407-409-411-412-251300-
SOUTHERN DESERTS

CITY           SKY/WX    TMP DP  RH WIND       PRES   REMARKS
DEMING         FAIR      64  59  83 VRB3      30.24R
6HR MIN TEMP:  64; 6HR MAX TEMP:  72;

LAS CRUCES     FAIR      66  59  77 N7        30.23S
HOLLOMAN AFB   FAIR      68  58  71 NE8       30.23R
ALAMOGORDO     FAIR      68  57  68 E5        30.23S
T OR C         FAIR      64  56  75 SW3       30.25S
6HR MIN TEMP:  63; 6HR MAX TEMP:  72;


$$
NMZ519>523-251300-
CENTRAL VALLEYS/CENTRAL HIGHLANDS

CITY           SKY/WX    TMP DP  RH WIND       PRES   REMARKS
ALBUQUERQUE    FAIR      66  55  67 E7        30.29R
6HR MIN TEMP:  66; 6HR MAX TEMP:  72;

DOUBLE EAGLE   PTCLDY    55  48  76 CALM      30.32S
MORIARTY ARPT  FAIR      56  55  94 CALM      30.39R
6HR MIN TEMP:  54; 6HR MAX TEMP:  66;

CLINES CORNERS CLOUDY    59  54  83 SE13      30.43R
6HR MIN TEMP:  58; 6HR MAX TEMP:  61;

BELEN          FAIR      63  48  59 SE6       30.28S
6HR MIN TEMP:  61; 6HR MAX TEMP:  68;

SOCORRO        FAIR      60  53  77 S7        30.25R
6HR MIN TEMP:  60; 6HR MAX TEMP:  67;


$$
NMZ524>526-539-540-251300-
SOUTHCENTRAL MOUNTAINS

CITY           SKY/WX    TMP DP  RH WIND       PRES   REMARKS
RUIDOSO        FAIR      57  54  88 S8        30.43S

$$
NMZ527>531-251300-
NORTHEAST HIGHLANDS/NORTHEAST PLAINS

CITY           SKY/WX    TMP DP  RH WIND       PRES   REMARKS
LAS VEGAS      CLOUDY    59  54  83 S9        30.42R
6HR MIN TEMP:  58; 6HR MAX TEMP:  61; 6HR PCP: TRACE;

RATON          CLOUDY    58  57  97 S8        30.38R FOG
6HR MIN TEMP:  57; 6HR MAX TEMP:  61; 6HR PCP:  0.02;

CLAYTON        LGT RAIN  60  60 100 S7        30.35R
6HR MIN TEMP:  58; 6HR MAX TEMP:  60; 6HR PCP:  0.09;


$$
NMZ532>537-251300-
EASTCENTRAL PLAINS

CITY           SKY/WX    TMP DP  RH WIND       PRES   REMARKS
SANTA ROSA     CLOUDY    63  59  87 SE10      30.32S
TUCUMCARI      CLOUDY    65  62  90 S5        30.29R
6HR MIN TEMP:  64; 6HR MAX TEMP:  66; 6HR PCP:  0.14;

CANNON AFB     DRIZZLE   62  62 100 CALM      30.32R
6HR MIN TEMP:  61; 6HR MAX TEMP:  65; 6HR PCP:  0.67;

CLOVIS AIRPORT CLOUDY    63  61  94 SW3       30.32R

$$
NMZ028-029-538-251300-
SOUTHEAST PLAINS

CITY           SKY/WX    TMP DP  RH WIND       PRES   REMARKS
ROSWELL        CLOUDY    71  62  73 SE10      30.26R
6HR MIN TEMP:  70; 6HR MAX TEMP:  77;

ARTESIA        CLOUDY    70  66  88 SE12      30.25R
CARLSBAD       MOCLDY    72  65  78 SE7       30.21R
6HR MIN TEMP:  71; 6HR MAX TEMP:  79;

HOBBS          CLOUDY    66  64  94 E9        30.28R


$$



USA.gov is the U.S. government's official web portal to all federal, state and local government web resources and services.